Location: Deep River
(46.0977°N, 77.4933°W)
Time: 21:37:43
(UTC-04:00)

ISS - Visible Passes

Search period start: 24 March 2019 00:00
Search period end: 03 April 2019 00:00
Orbit: 408 x 411 km, 51.6° (Epoch: 24 March)

Date Brightness Start Highest point End Pass type
(mag) Time Alt. Az. Time Alt. Az. Time Alt. Az.
24 Mar -3.8 20:42:50 10° WSW 20:46:09 81° NNW 20:48:17 20° ENE visible
24 Mar -0.8 22:20:01 10° WNW 22:21:04 17° WNW 22:21:04 17° WNW visible
25 Mar -3.7 19:52:14 10° SW 19:55:29 64° SSE 19:58:46 10° ENE visible
25 Mar -2.6 21:29:09 10° W 21:32:15 36° NNW 21:32:44 34° N visible
26 Mar -2.9 20:38:16 10° W 20:41:28 46° NNW 20:44:17 13° NE visible
26 Mar -1.1 22:15:34 10° WNW 22:17:03 21° NW 22:17:03 21° NW visible
27 Mar -2.3 21:24:43 10° WNW 21:27:42 30° N 21:28:30 27° NNE visible
28 Mar -2.3 20:33:48 10° WNW 20:36:51 33° N 20:39:53 10° ENE visible
28 Mar -1.5 22:10:54 10° WNW 22:12:39 24° NW 22:12:39 24° NW visible
29 Mar -2.3 21:20:08 10° WNW 21:23:07 30° N 21:23:59 26° NE visible
30 Mar -2.2 20:29:16 10° WNW 20:32:14 30° N 20:35:13 10° ENE visible
30 Mar -1.9 22:06:04 10° WNW 22:08:02 30° NW 22:08:02 30° NW visible
31 Mar -2.7 21:15:21 10° WNW 21:18:28 37° NNE 21:19:19 31° NE visible
31 Mar -0.4 22:51:55 10° WNW 22:52:04 11° WNW 22:52:04 11° WNW visible
01 Apr -2.4 20:24:33 10° WNW 20:27:36 32° N 20:30:35 10° ENE visible
01 Apr -2.4 22:01:10 10° WNW 22:03:20 38° WNW 22:03:20 38° WNW visible
02 Apr -3.5 21:10:25 10° WNW 21:13:41 57° NNE 21:14:37 39° E visible
02 Apr -0.5 22:47:16 10° W 22:47:22 11° W 22:47:22 11° W visible
